Flag for Switzerland Weather past 2 weeks in Solothurn, Solothurn, Switzerland

Now
46 °F

Cool.


Feels Like: 41 °F
Forecast: 35 / 61 °F
Wind: 10 mph from East

Location: Grenchen

Current Time: Apr 18, 2015 at 8:03:34 AM

Latest Report: Apr 18, 2015 at 7:00 AM


Visibility: N/A

Pressure: 30.12 "Hg

Humidity: 91%

Dew point: 44 °F

Location of SolothurnLocation

Historic Weather in Solothurn — Graph

°F

Solothurn temperature yesterday

Maximum temperature yesterday: 57 °F (at 4:00 PM)
Minimum temperature yesterday: 48 °F (at 12:00 AM)
Average temperature yesterday: 53 °F

Past Weeks' High & Low Weather Summary

 TemperatureHumidityPressure
High73 °F (Apr 15, 5:00 PM)100% (Apr 3, 7:00 AM)30.60 "Hg (Apr 3, 7:00 AM)
Low28 °F (Apr 7, 7:00 AM)23% (Apr 8, 3:00 PM)29.85 "Hg (Apr 4, 5:00 PM)
Average48 °F71%30.27 "Hg
* Reported Apr 3 6:00 AM — Apr 18 6:00 AM, Solothurn, Weather by CustomWeather, © 2015

Note: Actual official high and low records may vary slightly from our data, if they occured in-between our weather recording intervals... More about our weather records

Advertising

Solothurn weather history for previous 24 hours

 ConditionsComfort  
Time TempWeatherWind HumidityBarometerVisibility
6:00 AM
Sat, Apr 18
47 °FCool.9 mph91%30.10 "HgN/A
5:00 AM47 °FCool.7 mph93%30.10 "HgN/A
4:00 AM47 °FCool.13 mph92%30.09 "HgN/A
3:00 AM51 °FCool.2 mph99%30.06 "HgN/A
2:00 AM51 °FCool.2 mph100%30.07 "HgN/A
1:00 AM51 °FCool.2 mph99%30.06 "HgN/A
12:00 AM52 °FCool.2 mph99%30.05 "HgN/A
11:00 PM
Fri, Apr 17
52 °FCool.2 mph99%30.03 "HgN/A
10:00 PM53 °FCool.2 mph97%30.02 "HgN/A
9:00 PM53 °FCool.6 mph94%30.00 "HgN/A
8:00 PM55 °FCool.7 mph86%29.98 "HgN/A
7:00 PM56 °FCool.8 mph84%29.97 "HgN/A
6:00 PM56 °FCool.12 mph82%29.96 "HgN/A
5:00 PM56 °FCool.15 mph82%29.97 "HgN/A
4:00 PM57 °FCool.10 mph78%29.97 "HgN/A
3:00 PM56 °FCool.12 mph78%29.97 "HgN/A
2:00 PM56 °FCool.9 mph81%29.98 "HgN/A
1:00 PM56 °FCool.12 mph83%29.98 "HgN/A
12:00 PM56 °FCool.13 mph84%29.98 "HgN/A
11:00 AM54 °FCool.5 mph92%29.98 "HgN/A
10:00 AM52 °FCool.2 mph98%29.99 "HgN/A
9:00 AM52 °FCool.2 mph99%29.99 "HgN/A
8:00 AM51 °FCool.1 mph99%29.98 "HgN/A
Weather by CustomWeather, © 2015

See weather overviewHow to use our weather pages